This demonstration page uses our WeatherBlox Daily Observations layout. Learn more.

Left ArrowRight Arrow

Hourly Observations for January 2, 2015

Temp ( °F °C ) Dew Point ( °F °C ) Humidity (%) Winds ( mph kmh ) Pressure ( in mb ) Visibility ( mi km ) Precip ( " mm )
12:51 am 00:51 Cloudy 31 -0.6 27 -2.8 85 85 WNW 3 6 30.01 1016 10 16 N/A
1:51 am 01:51 Cloudy 31 -0.6 27 -2.8 85 85 WNW 5 7 30.00 1016 10 16 N/A
2:51 am 02:51 Partly Cloudy 30 -1.1 27 -2.8 88 88 WNW 3 6 29.99 1016 10 16 N/A
3:51 am 03:51 Mostly Clear 30 -1.1 27 -2.8 88 88 NW 3 6 29.97 1015 10 16 N/A
4:51 am 04:51 Mostly Cloudy 30 -1.1 26 -3.3 85 85 NW 6 9 29.97 1015 10 16 N/A
5:51 am 05:51 Cloudy 29 -1.7 25 -3.9 85 85 WNW 6 9 29.97 1015 10 16 N/A
6:51 am 06:51 Cloudy 30 -1.1 26 -3.3 85 85 NW 7 11 29.98 1015 10 16 N/A
7:51 am 07:51 Cloudy 30 -1.1 25 -3.9 82 82 NW 7 11 29.98 1015 10 16 N/A
8:51 am 08:51 Cloudy 30 -1.1 24 -4.4 79 79 NW 7 11 30.01 1016 10 16 N/A
9:51 am 09:51 Cloudy with Light Snow 30 -1.1 25 -3.9 82 82 W 5 7 30.02 1017 5 8 N/A
10:03 am 10:03 Cloudy with Light Snow 31 -0.6 26 -3.3 82 82 WNW 3 6 30.12 1020 2 3 0.01 0.25
10:13 am 10:13 Cloudy with Light Snow 31 -0.6 26 -3.3 82 82 WNW 3 6 30.12 1020 7 11 0.01 0.25
10:51 am 10:51 Cloudy 34 1.1 26 -3.3 73 73 W 6 9 30.00 1016 10 16 0.01 0.25
11:19 am 11:19 Cloudy with Light Snow 34 1.1 25 -3.9 70 70 NW 7 11 30.06 1018 7 11 N/A
11:51 am 11:51 Cloudy 36 2.2 24 -4.4 62 62 WNW 8 13 29.96 1015 10 16 N/A
12:29 pm 12:29 Cloudy 37 2.8 23 -5 57 57 WNW 9 15 30.03 1017 10 16 N/A
12:51 pm 12:51 Cloudy 37 2.8 24 -4.4 59 59 WNW 9 15 29.93 1014 10 16 N/A
1:51 pm 13:51 Cloudy 38 3.3 24 -4.4 57 57 WNW 10 17 29.91 1013 10 16 N/A
2:51 pm 14:51 Cloudy 39 3.9 23 -5 53 53 WNW 10 17 29.92 1013 10 16 N/A
3:51 pm 15:51 Cloudy 40 4.4 24 -4.4 53 53 WNW 10 17 29.92 1013 10 16 N/A
4:51 pm 16:51 Cloudy 41 5 26 -3.3 55 55 NW 13 20 29.93 1014 10 16 N/A
5:51 pm 17:51 Cloudy 40 4.4 26 -3.3 58 58 NW 13 20 29.95 1014 10 16 N/A
6:51 pm 18:51 Cloudy 39 3.9 27 -2.8 62 62 WNW 13 20 29.97 1015 10 16 N/A
7:51 pm 19:51 Mostly Cloudy 37 2.8 27 -2.8 67 67 NW 14 22 29.99 1016 10 16 N/A
8:51 pm 20:51 Cloudy 36 2.2 27 -2.8 70 70 NW 9 15 30.02 1017 10 16 N/A
9:51 pm 21:51 Clear 34 1.1 23 -5 64 64 NW 16 26 30.03 1017 10 16 N/A
10:51 pm 22:51 Clear 32 undefined 23 -5 69 69 NW 12 19 30.04 1017 10 16 N/A
11:51 pm 23:51 Clear 33 0.6 22 -5.6 64 64 NNW 16 26 30.04 1017 10 16 N/A

Powered by AerisWeather